Home > Weather > Kiruna > Past weeks

Flag for Sweden Past Weather in Kiruna, Sweden — Yesterday and Last 2 Weeks

Now
45 °F

Sunny.


Feels Like: 42 °F
Forecast: 32 / 55 °F
Wind: 5 mph from Southwest

Location: Kiruna Airport

Current Time: Aug 30, 2016 at 9:30:42 AM

Latest Report: Aug 30, 2016 at 8:50 AM


Visibility: 10 mi

Pressure: 29.62 "Hg (27.76 "Hg at 532m altitude)

Humidity: 81%

Dew Point: 39 °F

Location of KirunaLocation

Past Weather in Kiruna — Graph

°F

Kiruna Temperature Yesterday

Maximum temperature yesterday: 57 °F (at 3:50 PM)
Minimum temperature yesterday: 30 °F (at 2:50 AM)
Average temperature yesterday: 46 °F

High & Low Weather Summary for the Past Weeks

 TemperatureHumidityPressure
High64 °F (Aug 17, 3:50 PM)100% (Aug 18, 5:50 AM)30.24 "Hg (Aug 18, 5:50 AM)
Low30 °F (Aug 29, 2:50 AM)37% (Aug 17, 6:20 PM)29.42 "Hg (Aug 27, 8:20 AM)
Average50 °F79%29.99 "Hg
* Reported Aug 15 8:20 AM — Aug 30 8:20 AM, Kiruna, Weather by CustomWeather, © 2016

Note: Actual official high and low records may vary slightly from our data, if they occured in-between our weather recording intervals... More about our weather records

Advertising

Kiruna Weather History for the Previous 24 Hours

Scroll right to see more
 ConditionsComfort  
Time TempWeatherWind HumidityBarometerVisibility
8:20 AM
Tue, Aug 30
45 °FSunny.8 mph76%29.62 "Hg10 mi
7:50 AM41 °FSunny.6 mph87%29.62 "Hg10 mi
7:20 AM41 °FSunny.6 mph87%29.62 "Hg10 mi
6:50 AM41 °FSunny.6 mph87%29.62 "Hg10 mi
6:20 AM41 °FSunny.5 mph87%29.62 "Hg10 mi
5:50 AM41 °FClear.9 mph81%29.62 "Hg10 mi
5:20 AM41 °FQuite cool.8 mph81%29.62 "HgN/A
4:50 AM39 °FChilly.7 mph87%29.65 "HgN/A
4:20 AM39 °FChilly.7 mph87%29.65 "HgN/A
3:50 AM41 °FQuite cool.10 mph81%29.65 "HgN/A
3:20 AM41 °FQuite cool.7 mph81%29.65 "HgN/A
2:50 AM39 °FChilly.6 mph87%29.65 "HgN/A
2:20 AM39 °FChilly.5 mph87%29.68 "HgN/A
1:50 AM41 °FQuite cool.5 mph81%29.65 "HgN/A
1:20 AM41 °FQuite cool.5 mph81%29.68 "HgN/A
12:50 AM41 °FQuite cool.7 mph81%29.68 "HgN/A
12:20 AM37 °FChilly.5 mph93%29.68 "HgN/A
11:50 PM
Mon, Aug 29
45 °FQuite cool.9 mph71%29.68 "HgN/A
11:20 PM46 °FClear.8 mph66%29.68 "Hg10 mi
10:50 PM45 °FClear.8 mph71%29.68 "Hg10 mi
10:20 PM46 °FClear.8 mph71%29.68 "Hg10 mi
9:50 PM48 °FClear.6 mph66%29.68 "Hg10 mi
9:20 PM45 °FPassing clouds.5 mph76%29.68 "HgN/A
8:50 PM48 °FSunny.5 mph66%29.68 "Hg10 mi
8:20 PM50 °FSunny.5 mph58%29.68 "Hg10 mi
7:50 PM52 °FSunny.5 mph58%29.68 "Hg10 mi
7:20 PM54 °FSunny.6 mph51%29.68 "Hg10 mi
6:50 PM54 °FSunny.5 mph54%29.68 "Hg10 mi
6:20 PM55 °FSunny.3 mph55%29.68 "Hg10 mi
5:50 PM55 °FSunny.3 mph51%29.68 "Hg10 mi
5:20 PM57 °FSunny.7 mph48%29.68 "Hg10 mi
4:50 PM57 °FSunny.10 mph44%29.68 "Hg10 mi
4:20 PM57 °FSunny.10 mph48%29.68 "Hg10 mi
3:50 PM57 °FSunny.7 mph48%29.71 "Hg10 mi
3:20 PM55 °FPassing clouds.8 mph51%29.71 "HgN/A
2:50 PM55 °FSunny.13 mph51%29.71 "Hg10 mi
2:20 PM55 °FSunny.12 mph51%29.71 "Hg10 mi
1:50 PM55 °FSunny.10 mph51%29.71 "Hg10 mi
1:20 PM55 °FSunny.12 mph55%29.71 "Hg10 mi
12:50 PM54 °FSunny.14 mph58%29.74 "Hg10 mi
12:20 PM52 °FSunny.14 mph62%29.74 "Hg10 mi
11:50 AM52 °FSunny.13 mph62%29.74 "Hg10 mi
11:20 AM52 °FSunny.16 mph62%29.74 "Hg10 mi
10:50 AM52 °FSunny.16 mph58%29.74 "Hg10 mi
10:20 AM50 °FSunny.13 mph67%29.74 "Hg10 mi
9:50 AM52 °FSunny.14 mph62%29.74 "Hg10 mi
9:20 AM48 °FSunny.14 mph66%29.74 "Hg10 mi
Weather by CustomWeather, © 2016

See weather overviewHow to use our weather pages